Погода в Томске

Погода в Томске : погода сейчас, прогноз погоды и архив. Всё, что Вы хотите узнать о погоде в Томске!

Хотите узнать прогноз погоды в Томске? Тогда Вам сюда: Погода в Томске

Поиск расширенной информации на нашем сайте:

Другие новости

Новости СМИ2

Главная страница сайта

Новости сайта

03.07.2017

Напоминаем, что на нашем специализированном сайте Метеоцентр.Азия вы можете получить высокодетализированные автоматические прогнозы погоды по пунктам России, СНГ и мира в авиационном формате (включающие направление и скорость ветра, видимость, явления погоды, количество и форму облачности, нижнюю и верхнюю границу облачности).


Погода в Томске - сегодня

Время (UTC), дата Ветер
(°,м/с) 
Видим.   Явления Облачность Т
(°С)
Тd
(°С)
f(%) Тe
(°С)
Pmin
(гПа)
dP
(гПа)
Po
(мм)
O2
(г/м3)
Тmin Tmax R s Состояние
почвы
15 13.01.18 210 (ЮЗ) 20000 м    ясно 
-22.6 -25.1 80 -23  1022.1  752  332           
18 13.01.18 210 (ЮЗ) 20000 м    ясно 
-24.2 -27 78 -25  1021.4  -0.8  752  334           
21 13.01.18 210 (ЮЗ) 20000 м    6/0 верхняя 
[Ci fib]
-24.4 -27.4 76 -25  1021.1  -0.3  751  334           
00 14.01.18 190 (Ю) 20000 м    10/0 верхняя 
[Ci fib]
-24.3 -27.3 76 -25  1020.6  -0.5  751  334  -25.5         
03 14.01.18 190 (Ю) 20000 м    10/0 средняя 
[As op]
-22.3 -25.3 77 -23  1019.8  -0.7  750  331           
06 14.01.18 180 (Ю) 20000 м  слаб. снег  10/0 средняя 
[As op]
-20.5 -23.4 78 -23  1018.7  -0.9  750  328           
09 14.01.18 190 (Ю) 20000 м  слаб. снег  10/0 средняя 
[As op]
-19.6 -22.5 78 -22  1019  0.4  750  327           
12 14.01.18 190 (Ю) 20000 м  слаб. снег  10/0 средняя 
[As op]
-19.8 -22.5 79 -23  1019.8  0.8  751  328    -19.4     
15 14.01.18 190 (Ю) 10 км  слаб. снег  10/0 средняя 
[As op]
-20.4 -23.1 79 -23  1020.1  0.2  751  329           
18 14.01.18 200 (Ю) 20000 м  слаб. снег  10/0 средняя 
[As op]
-21.2 -24.3 76 -26  1020.3  0.2  751  330           
21 14.01.18 200 (Ю) 20000 м  {снег}  10/0 средняя 
[As op]
-22.9 -26 76 -26  1020.9  0.4  751  332           
00 15.01.18 210 (ЮЗ) 20000 м  {снег}  10/0 верхняя 
[Ci fib]
-23.9 -27 76 -24  1021.5  0.5  752  334  -24.3    56  равномерный
сухой снег
100% 
03 15.01.18 180 (Ю) 20000 м    10/0 средняя 
[Ac und]
-24.9 -28 75 -25  1021.6  752  335  -25.7         
06 15.01.18 170 (Ю) 20000 м    10/0 средняя 
[Ac und]
-22.7 -26 74 -23  1021.7  0.3  752  332           
09 15.01.18 160 (Ю) 20000 м  слаб. снег  10/3 600 м средняя 
[Sc|Ac und]
-21.9 -25.3 74 -22  1021.2  -0.4  752  331           
12 15.01.18 180 (Ю) 20000 м  {снег}  10/0 верхняя 
[Ci fib]
-22.8 -26.1 74 -23  1020.3  -1  751  332    -21.7  0.0     
15 15.01.18 160 (Ю) 20000 м  слаб. снег  10/6 300 м средняя 
[As op]
-21.3 -24.2 77 -22  1017.3  -2.8  749  329           
18 15.01.18 190 (Ю) 20000 м  слаб. снег  10/5 300 м средняя 
[Frnb|As op]
-19.6 -22.2 80 -20  1014.6  -2.5  747  326           
21 15.01.18 190 (Ю) 20000 м  слаб. снег  10/10 300 м 
[Frnb|Ns]
-18.5 -20.9 81 -21  1012.4  -2.2  745  324           
00 16.01.18 200 (Ю) 0050 м  снег  10/10 300 м 
[Frnb|Ns]
-17.1 -19.3 83 -20  1010.7  -1.5  744  321  -22.8    61  равномерный
сухой снег
100% 
03 16.01.18 200 (Ю) 20000 м  слаб. снег  10/10 500 м 
[Ns]
-15.5 -17.6 84 -19  1009.4  -1.1  743  319           
06 16.01.18 200 (Ю) 2000 м  снег  10/10 330 м 
[Ns]
-13.9 -15.8 86 -16  1009.4  0.1  743  317           
09 16.01.18 200 (Ю) 4000 м  слаб. снег  10/10 400 м 
[Ns]
-12.7 -14.5 86 -15  1009.9  0.6  744  316           
12 16.01.18 190 (Ю) 20000 м  в посл. час снег  10/10 400 м 
[Ns]
-12.1 -13.7 88 -12  1011.2  1.3  745  315    -12.1     
15 16.01.18 190 (Ю) 20000 м  слаб. снег  10/10 360 м 
[Ns]
-10.8 -12.3 89 -13  1010.2  -1  744  313           
Время (UTC), дата Ветер
(°,м/с) 
Видим.   Явления Облачность Т
(°С)
Тd
(°С)
f(%) Тe
(°С)
Pmin
(гПа)
dP
(гПа)
Po
(мм)
O2
(г/м3)
Тmin Tmax R s Состояние
почвы

Для получения пояснительной информации подведите курсор к названию столбца.

ПОГОДА в Томске - архив

Всё, что Вы хотите узнать о погоде в Томске - удобно и подробно!

Выберите нужную дату (начиная с 1 января 2015* года) и нажмите кнопку "Найти".
Будут отображены архивные сводки погоды по пункту Томск, начиная с указанной даты.


Отображать данные в формате CSV (для использования в таблицах Excel)


Внимание! Наш архив погоды предназначен исключительно для личного некоммерческого использования в познавательных целях. Если Вам необходимы официальные справки о состоянии погоды (для производственных, юридических, коммерческих и т.п. целей), обращайтесь в органы Росгидромета.

*Примечание: данная дата относится к архиву по метеостанциям СССР (Россия, СНГ, Балтия).
Архив по метеостанциям Зарубежной Европы и Азии (кроме Китая) хранится 10 дней, по другим регионам земного шара (Китай, Африка, Америка, Австралия, Океания) - 1 день.

Томск - район местоположения метеостанции


Название, широта, долгота, высота метеостанции:
Томск 56.5°ш. 84.9°д. 139 м над ур. моря [Российская Федерация]

Дополнительная информация

В oтличие oт бoльшинства пoгoдных сайтoв мы публикуем пoдрoбную метеoинфoрмацию в детальнoм прoфессиoнальнoм фoрмате.

Характеристики температуры и влажнoсти вoздуха измеряются на высoте 2 м в тени вдали oт зданий и деревьев.
Скoрoсть ветра измеряется на высoте 10 м (на урoвне рoста челoвека скoрoсть ветра ниже в 1.5-2 раза). Если метеoстанция нахoдится в гoрoде или в лесу, тo скoрoсть ветра занижена на 2-4 м/с пo сравнению с oткрытым местoм. Скoрoсть ветра над акватoриями крупных рек и oзёр, а также на вершинах хoлмoв на 2-5 м/с выше, чем в oбычных услoвиях.
Атмoсфернoе давление в разных тoчках местнoсти мoжет значительнo oтличаться oт давления на метеoстанции, в зависимoсти oт услoвий рельефа (при пoдъёме на 10 м давление пoнижается примернo на 1 мм рт.ст.).